Weather History for KLDJ - February, 2013

Change the Weather History Date:

Thursday, February 21, 2013

  Actual Average (KEWR) Record (KEWR)
Temperature  
Mean Temperature 30 °F 36 °F  
Max Temperature 37 °F 44 °F 69 °F (1953)
Min Temperature 25 °F 28 °F 6 °F (1950)
Degree Days  
Heating Degree Days 34 29  
Month to date heating degree days 653  
Since 1 July heating degree days 3437  
Cooling Degree Days 0 0  
Month to date cooling degree days 0  
Year to date cooling degree days 0  
Moisture  
Dew Point 13 °F    
Average Humidity 50    
Maximum Humidity 62    
Minimum Humidity 39    
Precipitation  
Precipitation 0.00 in 0.11 in 1.50 in (1951)
Month to date precipitation 2.12  
Year to date precipitation 5.66  
Snow  
Snow 0.00 in 0.30 in 4.10 in (1993)
Month to date snowfall 7.2  
Since 1 July snowfall 20.9  
Snow Depth -    
Sea Level Pressure  
Sea Level Pressure 30.09 in    
Wind  
Wind Speed 14 mph (WNW)    
Max Wind Speed 30 mph    
Max Gust Speed 44 mph    
Visibility 10 miles    
Events Snow    
T = Trace of Precipitation, MM = Missing Value Source: NWS Daily Summary

Daily Weather History Graph

Daily Weather History Graph

Search for Another Location

Airport or City:

Trip Planner

Search our weather history database for the weather conditions in past years. The results will help you decide how hot, cold, wet, or windy it might be!

Date:

Astronomy

Feb. 21, 2013 Rise Set
Actual Time 6:42 AM EST 5:39 PM EST
Civil Twilight 6:14 AM EST 6:07 PM EST
Nautical Twilight 5:42 AM EST 6:38 PM EST
Astronomical Twilight 5:11 AM EST 7:10 PM EST
Moon 1:51 PM EST (2/21) 3:45 AM EST (2/21)
Length of Visible Light 11h 52m
Length of Day
10h 57m
Waxing Gibbous, 83% of the Moon is Illuminated
Feb 21
Waxing Gibbous
Feb 25
Full
Mar 4
Last Quarter
Mar 11
New
Mar 19
First Quarter

Hourly Weather History & Observations

Time (EST) Temp. Windchill Dew Point Humidity Pressure Visibility Wind Dir Wind Speed Gust Speed Precip Events Conditions
12:15 AM 27.1 °F 16.4 °F 10.4 °F 49% 30.01 in 10.0 mi WNW 12.7 mph 19.6 mph N/A   Clear
12:35 AM 27.0 °F 16.7 °F 10.4 °F 50% 30.01 in 10.0 mi WNW 11.5 mph - N/A   Scattered Clouds
12:55 AM 26.6 °F 14.7 °F 10.8 °F 51% 30.02 in 10.0 mi West 15.0 mph 20.7 mph N/A   Clear
1:15 AM 26.6 °F 16.2 °F 11.1 °F 52% 30.01 in 10.0 mi West 11.5 mph 17.3 mph N/A   Clear
1:35 AM 26.4 °F 17.3 °F 11.3 °F 53% 30.02 in 10.0 mi West 9.2 mph - N/A   Clear
1:55 AM 26.2 °F 15.8 °F 11.8 °F 55% 30.01 in 10.0 mi West 11.5 mph - N/A   Clear
2:15 AM 26.2 °F 17.8 °F 11.5 °F 54% 30.01 in 10.0 mi West 8.1 mph - N/A   Clear
2:35 AM 25.9 °F 16.6 °F 12.0 °F 56% 30.01 in 10.0 mi West 9.2 mph - N/A   Clear
2:55 AM 26.1 °F 16.2 °F 12.4 °F 56% 30.01 in 10.0 mi West 10.4 mph - N/A   Scattered Clouds
3:15 AM 26.2 °F 17.8 °F 12.4 °F 56% 30.00 in 10.0 mi West 8.1 mph - N/A   Mostly Cloudy
3:35 AM 25.9 °F 16.6 °F 12.9 °F 58% 30.00 in 10.0 mi West 9.2 mph - N/A   Mostly Cloudy
3:55 AM 26.6 °F 17.5 °F 13.1 °F 57% 30.00 in 10.0 mi West 9.2 mph - N/A   Overcast
4:15 AM 26.6 °F 16.8 °F 13.1 °F 57% 30.00 in 10.0 mi WNW 10.4 mph 16.1 mph N/A   Overcast
4:35 AM 27.1 °F 18.2 °F 13.1 °F 56% 30.01 in 10.0 mi West 9.2 mph - N/A   Overcast
4:55 AM 27.1 °F 16.9 °F 13.1 °F 56% 30.01 in 10.0 mi West 11.5 mph - N/A   Overcast
5:15 AM 27.1 °F 16.9 °F 13.8 °F 57% 30.01 in 10.0 mi West 11.5 mph - N/A   Overcast
5:35 AM 27.5 °F 17.4 °F 13.8 °F 56% 30.02 in 10.0 mi West 11.5 mph 18.4 mph N/A   Overcast
5:55 AM 27.5 °F 17.4 °F 14.0 °F 57% 30.02 in 10.0 mi WNW 11.5 mph - N/A   Overcast
6:15 AM 27.5 °F 15.9 °F 13.8 °F 56% 30.03 in 10.0 mi WNW 15.0 mph 24.2 mph N/A   Overcast
6:35 AM 27.9 °F 15.9 °F 13.3 °F 54% 30.03 in 10.0 mi WNW 16.1 mph 23.0 mph N/A   Overcast
6:55 AM 27.5 °F 15.0 °F 12.2 °F 53% 30.04 in 10.0 mi WNW 17.3 mph 26.5 mph N/A   Overcast
7:15 AM 27.9 °F 16.8 °F 12.2 °F 52% 30.04 in 10.0 mi WNW 13.8 mph 25.3 mph N/A   Overcast
7:35 AM 27.7 °F 15.6 °F 12.7 °F 54% 30.04 in 10.0 mi WNW 16.1 mph 26.5 mph N/A   Overcast
7:55 AM 28.4 °F 17.0 °F 12.6 °F 52% 30.05 in 10.0 mi WNW 15.0 mph 20.7 mph N/A   Overcast
8:15 AM 28.8 °F 17.0 °F 11.8 °F 49% 30.04 in 10.0 mi WNW 16.1 mph 21.9 mph N/A   Overcast
8:35 AM 29.7 °F 18.6 °F 12.2 °F 48% 30.04 in 10.0 mi WNW 15.0 mph 21.9 mph N/A   Overcast
8:55 AM 30.2 °F 18.9 °F 11.7 °F 46% 30.04 in 10.0 mi WNW 16.1 mph 25.3 mph N/A   Scattered Clouds
9:15 AM 29.5 °F 18.0 °F 11.7 °F 48% 30.04 in 10.0 mi WNW 16.1 mph 27.6 mph N/A   Scattered Clouds
9:35 AM 29.8 °F 17.3 °F 12.0 °F 48% 30.04 in 10.0 mi WNW 19.6 mph 26.5 mph N/A   Scattered Clouds
9:55 AM 31.5 °F 20.1 °F 12.2 °F 45% 30.04 in 10.0 mi WNW 17.3 mph 28.8 mph N/A   Clear
10:35 AM 32.2 °F 20.4 °F 12.2 °F 44% 30.04 in 10.0 mi WNW 19.6 mph 31.1 mph N/A   Scattered Clouds
10:55 AM 32.5 °F 19.9 °F 12.2 °F 43% 30.04 in 10.0 mi West 23.0 mph 33.4 mph N/A   Scattered Clouds
11:15 AM 33.3 °F 19.8 °F 12.9 °F 43% 30.05 in 10.0 mi WNW 27.6 mph 34.5 mph N/A   Clear
11:35 AM 34.0 °F 21.3 °F 12.4 °F 41% 30.04 in 10.0 mi WNW 25.3 mph 35.7 mph N/A   Clear
11:55 AM 34.9 °F 22.5 °F 12.7 °F 40% 30.02 in 10.0 mi WNW 25.3 mph 34.5 mph N/A   Clear
12:15 PM 35.6 °F 23.4 °F 12.7 °F 39% 30.02 in 10.0 mi WNW 25.3 mph 34.5 mph N/A   Clear
12:35 PM 36.1 °F 25.5 °F 13.3 °F 39% 30.01 in 10.0 mi WNW 19.6 mph 33.4 mph N/A   Clear
1:15 PM 36.5 °F 25.4 °F 13.8 °F 39% 30.01 in 10.0 mi WNW 21.9 mph 31.1 mph N/A   Clear
1:35 PM 36.7 °F 26.6 °F 13.6 °F 39% 30.01 in 10.0 mi NW 18.4 mph 34.5 mph N/A   Clear
1:55 PM 36.3 °F 24.7 °F 14.0 °F 40% 30.02 in 10.0 mi WNW 24.2 mph 33.4 mph N/A   Clear
2:15 PM 36.5 °F 26.0 °F 14.0 °F 40% 30.02 in 10.0 mi WNW 19.6 mph 34.5 mph N/A   Clear
2:35 PM 36.3 °F 23.5 °F 14.5 °F 41% 30.03 in 10.0 mi WNW 29.9 mph 43.7 mph N/A   Clear
2:55 PM 36.0 °F 24.4 °F 14.7 °F 42% 30.04 in 10.0 mi NW 23.0 mph 33.4 mph N/A   Scattered Clouds
3:15 PM 36.1 °F 25.5 °F 14.9 °F 42% 30.04 in 10.0 mi WNW 19.6 mph 27.6 mph N/A   Clear
3:35 PM 36.3 °F 24.7 °F 14.9 °F 42% 30.04 in 10.0 mi WNW 24.2 mph 32.2 mph N/A   Clear
3:55 PM 36.5 °F 26.3 °F 14.7 °F 41% 30.05 in 10.0 mi WNW 18.4 mph 27.6 mph N/A   Clear
4:15 PM 36.5 °F 26.3 °F 14.4 °F 40% 30.07 in 10.0 mi NW 18.4 mph 26.5 mph N/A   Clear
4:35 PM 36.5 °F 27.0 °F 14.7 °F 41% 30.08 in 10.0 mi WNW 16.1 mph 21.9 mph N/A Snow Light Snow
5:15 PM 35.1 °F 25.2 °F 14.2 °F 42% 30.11 in 10.0 mi NW 16.1 mph 27.6 mph N/A   Clear
6:15 PM 32.2 °F 21.1 °F 14.0 °F 47% 30.14 in 10.0 mi NW 17.3 mph 20.7 mph N/A   Clear
6:35 PM 32.0 °F 20.5 °F 14.0 °F 48% 30.14 in 10.0 mi NNW 18.4 mph 24.2 mph N/A   Clear
6:55 PM 31.6 °F 21.2 °F 14.0 °F 48% 30.15 in 10.0 mi NNW 15.0 mph 23.0 mph N/A   Clear
7:15 PM 31.1 °F 21.4 °F 14.0 °F 49% 30.19 in 10.0 mi NW 12.7 mph 18.4 mph N/A   Clear
7:35 PM 30.7 °F 20.9 °F 14.0 °F 50% 30.21 in 10.0 mi WNW 12.7 mph 25.3 mph N/A   Clear
7:55 PM 30.2 °F 18.5 °F 14.0 °F 51% 30.23 in 10.0 mi NW 17.3 mph 21.9 mph N/A   Clear
8:15 PM 29.7 °F 21.3 °F 14.2 °F 53% 30.25 in 10.0 mi NW 9.2 mph 19.6 mph N/A   Clear
8:35 PM 28.9 °F 16.9 °F 14.0 °F 54% 30.27 in 10.0 mi NW 17.3 mph 26.5 mph N/A   Clear
8:55 PM 28.4 °F 18.0 °F 13.8 °F 54% 30.28 in 10.0 mi NW 12.7 mph 20.7 mph N/A   Clear
9:15 PM 28.0 °F 18.1 °F 14.0 °F 56% 30.29 in 10.0 mi NW 11.5 mph - N/A   Clear
9:35 PM 27.9 °F 17.3 °F 14.0 °F 56% 30.29 in 10.0 mi NW 12.7 mph 20.7 mph N/A   Clear
9:55 PM 27.5 °F 15.9 °F 13.6 °F 56% 30.28 in 10.0 mi NNW 15.0 mph 23.0 mph N/A   Clear
10:15 PM 27.5 °F 18.6 °F 13.8 °F 56% 30.28 in 10.0 mi NNW 9.2 mph 21.9 mph N/A   Clear
10:35 PM 27.0 °F 17.3 °F 14.0 °F 58% 30.28 in 10.0 mi NNW 10.4 mph 16.1 mph N/A   Clear
10:55 PM 27.0 °F 19.5 °F 14.0 °F 58% 30.29 in 10.0 mi NW 6.9 mph - N/A   Clear
11:15 PM 27.0 °F 20.5 °F 14.4 °F 59% 30.29 in 10.0 mi NW 5.8 mph - N/A   Clear
11:35 PM 26.8 °F 22.8 °F 14.7 °F 60% 30.29 in 10.0 mi WNW 3.5 mph - N/A   Clear
11:55 PM 26.6 °F 21.2 °F 15.3 °F 62% 30.30 in 10.0 mi NW 4.6 mph - N/A   Clear